TimeAKST,TemperatureF,Dew PointF,Humidity,Sea Level PressureIn,VisibilityMPH,Wind Direction,Wind SpeedMPH,Gust SpeedMPH,PrecipitationIn,Events,Conditions,WindDirDegrees,DateUTC
12:01 AM,28.4,28.4,100,29.30,2.5,WNW,1.2,-,N/A,Snow,Light Snow,300,2013-01-06 09:01:00
12:16 AM,28.4,28.4,100,29.30,1.5,ENE,2.3,-,N/A,Snow,Light Snow,60,2013-01-06 09:16:00
12:46 AM,30.2,30.2,100,29.31,2.0,Variable,1.2,-,N/A,Snow,Light Snow,0,2013-01-06 09:46:00
12:55 AM,29.3,29.5,100,29.31,1.8,Variable,2.3,-,0.03,Snow,Light Snow,0,2013-01-06 09:55:00
1:01 AM,30.2,30.2,100,29.31,2.0,Variable,4.6,-,N/A,Snow,Light Snow,0,2013-01-06 10:01:00
1:16 AM,30.2,30.2,100,29.31,2.5,SE,3.5,-,N/A,Snow,Light Snow,140,2013-01-06 10:16:00
1:31 AM,30.2,28.4,93,29.32,6.0,Variable,5.8,-,N/A,Snow,Light Snow,0,2013-01-06 10:31:00
1:46 AM,28.4,28.4,100,29.32,10.0,South,5.8,-,N/A,Rain-Snow,Light Freezing Rain,180,2013-01-06 10:46:00
1:55 AM,29.1,28.8,99,29.32,10.0,Variable,3.5,-,0.02,Rain-Snow,Light Freezing Rain,0,2013-01-06 10:55:00
2:01 AM,30.2,28.4,93,29.24,10.0,Variable,4.6,-,N/A,Snow,Light Snow,0,2013-01-06 11:01:00
2:46 AM,30.2,28.4,93,29.32,9.0,Variable,3.5,-,N/A,Rain-Snow,Freezing Rain,0,2013-01-06 11:46:00
3:16 AM,28.4,28.4,100,29.31,6.0,SSW,4.6,-,N/A,Snow,Light Snow,210,2013-01-06 12:16:00
3:31 AM,28.4,28.4,100,29.31,3.0,SW,3.5,-,N/A,Snow,Light Snow,220,2013-01-06 12:31:00
3:55 AM,28.8,28.2,98,29.31,10.0,Variable,2.3,-,0.00,Snow,Light Snow,0,2013-01-06 12:55:00
4:16 AM,28.4,28.4,100,29.31,10.0,NE,2.3,-,N/A,Rain-Snow,Light Freezing Rain,40,2013-01-06 13:16:00
4:31 AM,28.4,28.4,100,29.30,10.0,North,3.5,-,N/A,Snow,Light Snow Showers,360,2013-01-06 13:31:00
4:46 AM,28.4,28.4,100,29.29,10.0,North,2.3,-,N/A,Snow,Light Snow Showers,350,2013-01-06 13:46:00
4:55 AM,28.4,28.4,100,29.20,10.0,North,3.5,-,N/A,Snow,Light Snow Showers,360,2013-01-06 13:55:00
5:46 AM,28.4,26.6,93,29.27,10.0,NW,2.3,-,N/A,,Mostly Cloudy,310,2013-01-06 14:46:00
5:55 AM,29.1,26.8,91,29.26,10.0,NW,2.3,-,N/A,,Mostly Cloudy,310,2013-01-06 14:55:00
6:55 AM,27.1,26.4,97,29.26,10.0,North,3.5,-,N/A,,Mostly Cloudy,360,2013-01-06 15:55:00
7:55 AM,27.5,26.4,96,29.24,10.0,NNE,3.5,-,N/A,,Mostly Cloudy,20,2013-01-06 16:55:00
8:55 AM,26.1,25.2,96,29.22,10.0,NE,4.6,-,N/A,,Mostly Cloudy,50,2013-01-06 17:55:00
9:31 AM,28.4,26.6,93,29.21,10.0,ENE,5.8,-,N/A,Snow,Light Snow,70,2013-01-06 18:31:00
9:46 AM,28.4,26.6,93,29.21,10.0,NNE,8.1,15.0,N/A,,Mostly Cloudy,20,2013-01-06 18:46:00
9:55 AM,28.4,25.7,90,29.20,10.0,Variable,4.6,-,N/A,,Mostly Cloudy,0,2013-01-06 18:55:00
10:31 AM,28.4,26.6,93,29.21,10.0,NE,8.1,-,N/A,Snow,Light Snow Showers,40,2013-01-06 19:31:00
10:55 AM,30.2,25.2,82,29.19,10.0,Variable,5.8,-,N/A,Snow,Light Snow Showers,0,2013-01-06 19:55:00
11:55 AM,31.5,24.3,75,29.18,10.0,North,17.3,21.9,N/A,Snow,Light Snow Showers,10,2013-01-06 20:55:00
12:01 PM,32.0,24.8,75,29.18,10.0,North,15.0,21.9,N/A,,Scattered Clouds,10,2013-01-06 21:01:00
12:55 PM,32.2,22.1,66,29.17,10.0,North,10.4,16.1,N/A,,Mostly Cloudy,10,2013-01-06 21:55:00
1:55 PM,27.5,21.6,78,29.13,10.0,ENE,11.5,-,N/A,,Scattered Clouds,60,2013-01-06 22:55:00
2:55 PM,27.7,21.2,77,29.11,10.0,ENE,11.5,-,N/A,,Mostly Cloudy,70,2013-01-06 23:55:00
3:55 PM,28.9,20.5,71,29.09,10.0,ENE,9.2,-,N/A,,Overcast,70,2013-01-07 00:55:00
4:55 PM,28.4,19.2,69,29.07,10.0,ENE,8.1,-,N/A,,Mostly Cloudy,60,2013-01-07 01:55:00
5:55 PM,25.5,19.2,77,29.06,10.0,NE,2.3,-,N/A,,Mostly Cloudy,40,2013-01-07 02:55:00
6:55 PM,25.3,18.3,75,29.05,10.0,Variable,3.5,-,N/A,,Overcast,0,2013-01-07 03:55:00
7:55 PM,18.1,16.7,94,29.06,10.0,ESE,2.3,-,N/A,,Mostly Cloudy,110,2013-01-07 04:55:00
8:55 PM,15.8,14.5,95,29.05,10.0,South,2.3,-,N/A,,Mostly Cloudy,190,2013-01-07 05:55:00
9:55 PM,14.5,13.8,97,29.03,10.0,SSW,1.2,-,N/A,,Mostly Cloudy,210,2013-01-07 06:55:00
10:55 PM,13.1,12.0,95,29.03,10.0,West,2.3,-,N/A,,Mostly Cloudy,280,2013-01-07 07:55:00
11:55 PM,12.4,10.2,91,29.04,10.0,NE,3.5,-,N/A,,Overcast,40,2013-01-07 08:55:00